Wind_Speed
33 33 31 30 30 32 33 33 33 35 33 33 33 30 28 26 23 21 20 19 18 18 18 17 16 17 17 18 19 20 21 22 23 24 24 25 25 26 27 29 30 31 32 33
35 34 33 33 33 33 34 34 34 36 35 35 34 32 29 28 26 24 23 21 21 21 21 21 20 20 21 22 23 23 24 24 25 26 27 27 27 28 29 30 32 33 35 35
38 37 36 35 35 35 36 36 35 37 36 36 36 33 30 30 29 26 25 24 24 24 25 25 24 23 23 24 25 26 26 27 27 28 29 29 30 30 31 32 34 35 36 37
42 41 39 38 38 38 38 38 37 38 39 38 38 36 31 32 30 28 27 27 27 28 28 28 28 27 26 27 28 28 29 29 30 31 31 32 32 32 33 34 35 36 37 38
45 44 42 41 40 40 41 40 40 40 42 41 40 40 32 32 32 29 29 31 31 31 31 31 32 32 31 31 31 32 32 33 33 34 34 35 35 35 36 36 36 37 38 39
49 48 46 44 43 43 43 43 43 44 44 44 41 43 39 34 33 32 31 33 34 34 35 35 36 36 35 35 35 36 36 36 37 38 38 38 38 38 38 38 37 38 39 40
53 51 49 47 46 46 46 46 46 47 47 46 45 46 44 38 36 35 35 36 37 38 39 39 39 39 39 39 39 40 40 40 41 41 41 41 41 41 41 40 39 39 40 41
53 54 52 50 49 47 46 47 48 49 50 49 50 49 45 45 41 39 39 40 41 41 42 43 43 43 43 44 44 44 44 45 45 45 45 44 44 44 44 43 42 41 42 42
53 55 55 53 51 51 50 50 49 50 53 54 53 50 47 47 46 45 44 44 44 45 45 46 46 47 47 47 48 48 48 49 49 49 48 47 46 46 46 45 45 44 44 45
52 53 56 56 55 53 52 50 50 53 55 57 56 52 50 50 51 52 51 49 48 47 48 49 49 50 50 51 51 52 52 52 52 52 51 50 48 48 47 46 46 47 47 47
50 53 57 58 57 53 51 52 53 55 56 58 59 56 51 52 54 55 55 53 51 50 49 49 50 51 52 53 53 54 55 55 55 54 53 51 50 49 48 47 47 48 49 49
49 51 55 58 57 55 55 54 55 57 58 59 60 59 54 53 55 57 57 56 55 54 53 52 52 52 53 54 55 56 56 56 56 55 54 53 51 50 49 48 49 49 50 50
53 54 55 57 60 59 58 56 56 56 57 59 61 60 55 55 55 56 57 58 59 59 58 56 54 54 54 55 56 56 57 57 57 56 55 54 52 51 50 50 50 50 51 51
54 55 55 55 57 58 57 56 56 57 60 61 62 60 56 55 56 57 58 59 60 61 60 58 57 57 57 58 58 59 59 59 58 57 55 54 53 53 52 51 51 51 52 53
55 56 56 55 56 58 59 58 58 59 60 62 61 60 56 55 57 59 60 61 62 62 62 61 60 59 59 60 61 61 61 60 59 58 57 56 55 54 53 53 53 53 54 54
57 58 58 58 57 59 61 60 60 60 60 61 62 61 54 56 58 59 60 61 62 62 63 63 63 62 62 62 62 63 63 62 61 60 59 58 57 56 56 55 55 55 56 56
57 59 60 62 60 62 64 61 61 62 61 61 62 60 57 59 60 60 61 63 64 64 65 65 65 65 65 65 64 64 64 64 64 63 62 61 61 60 59 59 59 59 59 59
59 59 61 62 64 67 65 62 64 65 64 64 65 62 61 62 63 63 64 65 66 66 66 67 67 68 68 68 68 67 66 66 66 65 65 64 64 64 63 63 63 63 64 64
62 62 62 62 65 69 68 66 66 68 69 67 68 68 67 67 68 67 67 68 69 70 70 70 70 70 71 71 71 71 71 71 70 69 69 69 69 68 68 68 67 67 67 67
62 63 64 64 66 70 69 66 65 67 70 68 69 69 69 70 72 71 70 71 72 73 73 74 74 74 74 75 75 75 75 75 74 74 73 73 72 72 71 71 70 70 70 69
62 64 65 66 67 70 67 65 66 69 70 69 69 69 69 70 72 72 72 72 72 73 74 75 76 76 77 77 77 77 77 77 77 76 75 75 74 74 73 73 73 72 71 71
64 65 66 66 69 69 64 65 67 70 70 69 70 71 72 72 72 71 71 72 73 74 74 75 76 76 76 76 77 77 77 77 77 77 76 75 75 75 74 73 73 72 71 71
67 67 67 68 69 68 67 69 70 71 72 72 73 74 75 76 76 75 75 75 74 75 76 76 76 76 76 76 76 76 76 76 76 76 75 75 74 74 72 72 71 70 69 68
69 69 70 70 69 68 69 69 71 72 73 73 73 75 76 77 77 78 77 77 77 76 77 77 77 77 77 77 76 75 75 74 74 74 73 72 72 70 69 68 67 66 64 63
68 68 70 71 70 70 70 70 71 73 73 74 74 75 76 77 78 78 78 77 77 76 76 76 76 75 75 75 74 73 72 72 72 72 71 70 68 66 65 63 62 62 62 61
65 66 68 70 69 71 71 71 71 73 73 73 74 74 75 76 77 78 77 76 76 75 75 74 73 73 72 72 71 70 70 70 69 69 68 66 65 64 63 61 60 60 60 59
Wind_Direction
235 236 238 240 240 239 239 239 239 242 240 242 243 242 245 247 245 247 250 252 255 260 265 270 276 284 291 297 302 307 312 315 317 316 314 311 307 302 298 293 289 287 285 283
237 239 240 240 241 242 242 242 241 244 244 244 245 243 242 246 245 244 248 252 254 259 265 270 275 282 288 293 297 301 306 310 313 314 313 311 308 304 298 293 289 286 284 283
240 240 241 242 243 243 244 244 244 246 246 247 248 245 242 244 246 245 248 252 256 259 265 271 276 281 285 289 293 297 301 305 309 311 312 310 307 304 299 294 290 288 286 284
241 242 242 243 244 245 246 247 247 248 249 248 250 249 239 244 246 248 250 253 257 260 265 271 276 279 282 286 289 293 297 300 304 307 309 309 307 304 299 296 293 290 287 285
242 243 244 245 246 247 248 249 249 249 250 250 251 254 245 242 245 247 250 255 258 261 266 270 274 278 281 284 287 290 293 296 300 303 306 307 306 303 300 298 294 290 288 286
243 244 245 245 246 247 248 249 249 249 251 251 252 256 254 245 246 246 248 254 259 263 266 269 273 277 280 282 284 287 290 293 296 299 302 304 305 303 301 298 294 290 288 287
243 244 245 246 246 247 248 249 250 251 251 253 254 254 258 255 250 249 249 251 256 261 265 269 272 275 277 280 282 284 287 289 292 295 297 299 301 302 301 298 293 290 287 286
243 244 244 246 246 247 248 249 251 253 253 253 253 254 257 260 258 255 254 254 256 259 263 267 270 272 274 276 279 281 283 286 288 291 293 295 297 299 299 297 293 288 285 283
245 246 245 244 246 246 246 247 250 252 253 254 253 256 258 261 263 261 260 259 260 261 263 265 267 270 271 273 276 278 280 282 285 287 290 292 294 296 297 295 292 287 284 282
243 246 246 245 244 245 247 248 246 249 252 254 255 255 258 260 263 264 264 264 264 264 264 265 266 268 269 271 273 275 278 280 283 285 287 290 292 293 294 293 289 286 283 281
241 244 247 248 247 247 246 247 249 250 252 254 256 255 257 260 264 267 268 269 269 268 267 267 268 268 269 270 272 274 276 279 281 284 286 288 290 291 291 289 286 284 282 281
241 243 246 248 249 249 248 247 248 249 251 253 256 256 258 261 264 267 270 272 274 274 273 273 273 272 273 273 274 275 276 278 280 283 285 287 288 289 288 286 283 282 281 281
242 243 245 247 249 249 250 250 250 252 253 254 256 258 259 261 264 266 269 271 272 273 274 275 276 276 275 275 276 277 278 279 281 283 284 286 286 286 285 283 281 280 280 280
243 244 246 248 252 253 253 252 251 252 254 256 258 260 257 261 264 265 266 267 268 271 273 275 276 276 276 277 277 278 279 280 282 283 284 284 284 284 283 281 280 280 280 280
245 246 246 247 248 251 253 253 253 254 256 259 261 261 259 260 262 264 266 267 268 269 271 272 274 275 276 277 278 279 280 281 282 283 284 284 283 283 282 281 279 279 279 280
246 247 248 247 247 248 250 252 255 257 258 260 261 261 262 261 262 263 264 266 267 268 269 271 272 274 275 276 277 279 281 282 283 283 284 284 283 282 281 280 280 280 280 280
245 247 248 248 247 247 248 251 255 258 260 262 262 263 261 259 259 261 262 263 264 266 267 269 271 273 273 274 276 277 279 280 281 282 282 283 283 282 282 281 281 281 281 281
244 246 249 250 250 250 251 252 254 257 258 260 262 262 261 261 260 260 261 263 264 265 266 268 270 271 272 274 275 276 276 277 278 279 280 281 281 281 281 281 281 281 281 281
246 248 250 251 253 255 253 255 257 259 259 260 263 263 262 262 262 261 262 264 265 266 267 269 270 271 272 273 275 276 277 277 278 278 278 279 280 281 281 281 282 282 282 282
248 250 252 253 255 256 257 257 259 261 262 262 264 265 265 265 265 264 264 266 267 268 269 270 271 272 273 274 275 276 277 278 278 279 279 280 280 280 281 281 281 282 282 283
249 251 254 256 258 259 259 260 261 262 263 263 264 266 266 266 267 267 267 267 268 269 270 271 272 273 273 274 275 276 277 277 278 279 279 280 280 280 280 281 281 282 282 283
251 253 255 257 259 262 262 261 262 264 265 265 265 266 267 267 268 268 269 269 269 270 271 271 272 273 273 274 275 275 276 276 277 278 278 279 279 280 280 281 281 282 282 282
254 256 258 259 261 264 263 263 264 266 267 267 267 268 269 269 269 269 270 270 270 271 271 272 273 273 273 274 275 275 275 276 276 277 277 278 279 279 280 280 281 281 282 282
255 257 259 261 263 264 265 266 266 268 269 269 270 270 270 271 271 271 271 272 272 272 272 272 272 273 273 274 274 274 275 275 276 276 277 278 279 279 279 280 281 281 281 282
257 259 261 262 264 264 264 265 266 267 267 268 269 269 270 271 272 272 272 272 272 272 272 272 272 272 272 272 272 273 273 274 275 275 276 277 278 278 279 279 280 280 281 281
258 261 262 263 264 264 264 265 266 267 268 268 268 269 269 271 271 272 272 272 272 272 271 270 270 270 270 270 270 271 271 272 273 274 275 276 277 277 278 279 280 281 281 281
Height
5800 5805 5809 5813 5816 5818 5820 5823 5827 5828 5832 5835 5837 5841 5844 5846 5849 5851 5852 5853 5854 5854 5855 5856 5857 5857 5857 5856 5856 5855 5854 5853 5852 5850 5849 5847 5846 5845 5843 5842 5840 5839 5837 5836
5795 5799 5803 5805 5808 5811 5814 5817 5820 5822 5825 5828 5831 5835 5839 5840 5843 5846 5847 5849 5850 5850 5851 5851 5852 5853 5853 5852 5851 5851 5850 5848 5847 5846 5844 5842 5841 5839 5837 5835 5834 5832 5830 5829
5788 5793 5795 5799 5802 5805 5807 5811 5814 5816 5818 5821 5824 5828 5833 5835 5837 5841 5843 5844 5845 5845 5845 5846 5847 5848 5848 5847 5846 5846 5844 5843 5842 5840 5838 5837 5835 5833 5831 5829 5827 5825 5823 5821
5779 5783 5788 5791 5795 5797 5800 5804 5806 5809 5810 5813 5816 5819 5827 5829 5832 5835 5837 5838 5839 5839 5840 5840 5840 5842 5842 5842 5841 5840 5839 5837 5836 5834 5832 5830 5828 5827 5825 5822 5820 5818 5815 5813
5771 5775 5780 5784 5788 5789 5792 5796 5798 5801 5802 5806 5809 5810 5818 5823 5825 5829 5831 5832 5832 5833 5833 5834 5834 5834 5835 5835 5834 5833 5832 5831 5829 5827 5826 5824 5821 5819 5817 5815 5813 5810 5808 5805
5761 5766 5770 5775 5778 5781 5784 5787 5789 5791 5794 5798 5803 5803 5806 5816 5819 5822 5825 5825 5825 5825 5826 5826 5826 5826 5827 5827 5826 5825 5824 5823 5821 5820 5818 5816 5814 5811 5809 5807 5805 5802 5799 5797
5751 5756 5760 5765 5768 5772 5775 5777 5780 5782 5785 5790 5793 5795 5797 5805 5811 5814 5816 5817 5817 5817 5817 5818 5818 5818 5818 5818 5817 5816 5815 5814 5813 5811 5810 5808 5805 5803 5800 5798 5796 5793 5791 5788
5739 5744 5751 5754 5758 5762 5765 5768 5771 5774 5776 5781 5781 5786 5793 5794 5799 5803 5806 5807 5808 5809 5809 5809 5809 5809 5809 5808 5807 5807 5806 5805 5804 5802 5801 5799 5796 5794 5791 5788 5786 5783 5781 5778
5729 5733 5738 5743 5747 5750 5754 5757 5761 5761 5764 5767 5772 5779 5784 5785 5788 5792 5794 5796 5798 5799 5799 5799 5799 5799 5798 5798 5797 5796 5796 5795 5794 5792 5791 5789 5786 5784 5781 5778 5775 5772 5769 5766
5717 5720 5724 5729 5734 5739 5743 5747 5749 5749 5751 5754 5762 5769 5775 5777 5777 5778 5781 5783 5785 5787 5788 5787 5787 5787 5787 5786 5786 5785 5785 5784 5782 5781 5779 5777 5775 5772 5769 5766 5763 5760 5757 5754
5707 5709 5712 5717 5722 5729 5733 5735 5737 5738 5741 5744 5748 5760 5767 5767 5766 5766 5767 5768 5770 5772 5773 5774 5774 5774 5773 5773 5773 5773 5772 5771 5770 5768 5767 5765 5763 5760 5757 5754 5751 5747 5744 5742
5695 5697 5700 5706 5710 5714 5718 5723 5724 5726 5729 5731 5735 5750 5758 5758 5755 5754 5754 5755 5756 5756 5757 5758 5758 5759 5759 5759 5759 5758 5758 5757 5756 5755 5754 5752 5750 5747 5745 5741 5738 5735 5732 5729
5682 5684 5689 5692 5698 5701 5704 5710 5712 5714 5716 5718 5722 5739 5747 5747 5744 5743 5743 5743 5741 5741 5742 5742 5743 5743 5743 5743 5743 5743 5743 5742 5742 5741 5740 5738 5736 5734 5731 5728 5725 5722 5719 5716
5668 5672 5678 5684 5686 5687 5691 5696 5699 5700 5700 5705 5711 5724 5735 5733 5730 5729 5729 5729 5729 5729 5729 5728 5728 5727 5727 5727 5727 5727 5728 5727 5726 5726 5725 5724 5721 5719 5717 5714 5712 5709 5706 5703
5654 5659 5664 5670 5673 5673 5675 5680 5684 5686 5689 5693 5700 5706 5719 5721 5717 5715 5714 5715 5715 5715 5714 5714 5714 5713 5712 5711 5710 5710 5711 5711 5710 5710 5710 5708 5706 5704 5702 5700 5697 5695 5692 5689
5641 5645 5650 5655 5660 5660 5661 5666 5671 5674 5677 5679 5683 5690 5705 5704 5702 5701 5700 5700 5699 5700 5700 5700 5699 5698 5697 5696 5695 5694 5694 5694 5693 5693 5693 5691 5690 5688 5687 5685 5682 5680 5678 5675
5628 5632 5635 5640 5644 5642 5646 5660 5661 5661 5663 5665 5666 5678 5685 5684 5686 5686 5685 5684 5684 5685 5685 5685 5685 5684 5683 5682 5681 5680 5680 5678 5677 5677 5676 5674 5673 5672 5671 5669 5667 5665 5662 5660
5615 5618 5620 5623 5625 5625 5641 5648 5647 5647 5649 5650 5651 5658 5664 5665 5667 5670 5669 5667 5668 5669 5669 5670 5669 5668 5667 5666 5665 5665 5664 5663 5662 5661 5659 5658 5656 5655 5653 5652 5650 5648 5645 5643
5601 5604 5605 5607 5607 5609 5625 5635 5634 5631 5633 5637 5636 5640 5643 5645 5647 5653 5653 5651 5652 5653 5653 5653 5652 5652 5651 5650 5649 5647 5647 5646 5645 5644 5642 5641 5639 5637 5636 5634 5632 5629 5627 5625
5587 5588 5590 5591 5592 5595 5614 5621 5617 5613 5612 5622 5620 5621 5624 5626 5626 5634 5636 5635 5636 5636 5635 5635 5634 5634 5633 5633 5631 5629 5628 5627 5626 5624 5623 5622 5620 5619 5617 5615 5613 5610 5608 5605
5573 5574 5574 5577 5577 5579 5600 5604 5600 5595 5599 5604 5603 5602 5604 5606 5607 5613 5616 5617 5617 5617 5617 5616 5616 5615 5615 5613 5612 5610 5609 5607 5606 5605 5603 5602 5600 5598 5597 5595 5593 5591 5588 5585
5557 5559 5562 5564 5562 5570 5585 5585 5582 5578 5581 5584 5585 5584 5584 5586 5589 5591 5594 5597 5597 5597 5597 5596 5595 5595 5594 5593 5592 5590 5589 5587 5586 5584 5583 5581 5580 5578 5576 5574 5572 5570 5568 5565
5541 5545 5547 5549 5552 5557 5563 5564 5562 5561 5562 5564 5566 5566 5565 5566 5569 5571 5573 5575 5577 5577 5577 5576 5575 5574 5574 5572 5571 5570 5569 5567 5566 5565 5563 5562 5560 5558 5556 5554 5552 5550 5547 5545
5525 5529 5530 5532 5538 5541 5543 5544 5544 5542 5542 5544 5545 5546 5545 5545 5547 5549 5551 5553 5555 5556 5556 5555 5554 5553 5553 5552 5550 5549 5548 5547 5546 5544 5543 5542 5540 5538 5537 5535 5533 5530 5528 5525
5511 5514 5514 5515 5521 5521 5523 5525 5525 5523 5523 5524 5525 5525 5525 5524 5525 5527 5528 5531 5532 5533 5533 5533 5532 5532 5531 5530 5529 5528 5527 5527 5526 5525 5524 5522 5521 5519 5517 5516 5514 5512 5510 5507
5499 5499 5497 5498 5502 5498 5502 5506 5504 5503 5503 5504 5504 5505 5506 5504 5504 5505 5506 5508 5509 5510 5510 5510 5510 5510 5509 5509 5508 5508 5507 5507 5506 5505 5504 5503 5502 5501 5499 5497 5495 5493 5491 5489